CFG8ZY EDDF-LEPA

Flight info

Callsign CFG8ZY
Flight time 1h 49m
Altitude 37000
Route ANEKI2L/18 ANEKI Y163 HERBI Y164 MOPAN DCT LUTIX DCT BENOT DCT NEMOS DCT INCUS DCT BALSI DCT RETNO DCT TUPOX DCT MTG DCT DIVKO DCT VATIR DCT PIVUS N852 VERSO L129 LUNIK
Aircraft A321/M-SDE3FGHIRWY/LB1

Departure

Time 2026-05-04 09:34
Airport Frankfurt Main Airport (EDDF)

Arrival

Time 2026-05-04 11:23
Airport Palma de Mallorca Airport (LEPA)
Time Latitude Longitude Altitude Speed Heading
2026-05-04 08:33 50.04980 8.59151 362 ft 0 kts 160°
2026-05-04 09:25 50.05071 8.59178 363 ft 1 kts 250°
2026-05-04 09:28 50.05070 8.59172 362 ft 4 kts 250°
2026-05-04 09:29 50.05044 8.59061 363 ft 14 kts 250°
2026-05-04 09:29 50.05014 8.58935 362 ft 7 kts 250°
2026-05-04 09:29 50.05006 8.58903 364 ft 3 kts 250°
2026-05-04 09:29 50.04990 8.58834 359 ft 9 kts 250°
2026-05-04 09:30 50.04969 8.58750 362 ft 8 kts 250°
2026-05-04 09:30 50.04944 8.58687 360 ft 6 kts 219°
2026-05-04 09:30 50.04908 8.58675 362 ft 6 kts 178°
2026-05-04 09:30 50.04882 8.58687 366 ft 2 kts 160°
2026-05-04 09:31 50.04871 8.58693 364 ft 6 kts 160°
2026-05-04 09:31 50.04789 8.58740 367 ft 17 kts 160°
2026-05-04 09:31 50.04677 8.58764 370 ft 15 kts 186°
2026-05-04 09:31 50.04588 8.58725 371 ft 13 kts 208°
2026-05-04 09:32 50.04522 8.58649 371 ft 11 kts 217°
2026-05-04 09:32 50.04480 8.58557 370 ft 10 kts 249°
2026-05-04 09:34 50.02581 8.51093 1617 ft 185 kts 231°
2026-05-04 09:34 50.01491 8.49946 1881 ft 199 kts 201°
2026-05-04 09:34 50.00105 8.49351 2106 ft 212 kts 186°
2026-05-04 09:34 49.98631 8.49628 2609 ft 217 kts 162°
2026-05-04 09:35 49.97329 8.50828 3179 ft 222 kts 140°
2026-05-04 09:35 49.96132 8.52333 3721 ft 222 kts 154°
2026-05-04 09:35 49.94634 8.53070 3968 ft 236 kts 176°
2026-05-04 09:35 49.92947 8.53144 4247 ft 252 kts 180°
2026-05-04 09:37 49.79868 8.54028 9238 ft 278 kts 179°
2026-05-04 09:37 49.77950 8.54115 9949 ft 280 kts 185°
2026-05-04 09:38 49.75954 8.53855 10382 ft 293 kts 187°
2026-05-04 09:38 49.73845 8.53569 10516 ft 315 kts 186°
2026-05-04 09:38 49.71627 8.53272 10644 ft 335 kts 186°
2026-05-04 09:38 49.69245 8.52955 10896 ft 349 kts 186°
2026-05-04 09:39 49.66809 8.52634 11452 ft 354 kts 186°
2026-05-04 09:39 49.64348 8.52313 12079 ft 357 kts 186°
2026-05-04 09:39 49.61860 8.51988 12698 ft 360 kts 186°
2026-05-04 09:39 49.59349 8.51659 13322 ft 364 kts 186°
2026-05-04 09:40 49.56817 8.51327 13910 ft 367 kts 186°
2026-05-04 09:40 49.54262 8.50992 14438 ft 370 kts 186°
2026-05-04 09:40 49.51690 8.50652 14977 ft 372 kts 186°
2026-05-04 09:40 49.49979 8.50427 15337 ft 374 kts 186°
2026-05-04 09:41 49.47380 8.50088 15874 ft 376 kts 186°
2026-05-04 09:42 49.28754 8.47658 19322 ft 391 kts 186°
2026-05-04 09:43 49.26038 8.47307 19748 ft 393 kts 186°
2026-05-04 09:43 49.23305 8.46954 20175 ft 395 kts 186°
2026-05-04 09:43 49.20593 8.46600 20594 ft 397 kts 186°
2026-05-04 09:43 49.17798 8.46230 21021 ft 399 kts 187°
2026-05-04 09:44 49.15023 8.45864 21431 ft 402 kts 187°
2026-05-04 09:44 49.12271 8.45504 21842 ft 404 kts 186°
2026-05-04 09:44 49.09467 8.45139 22245 ft 406 kts 186°
2026-05-04 09:46 48.89816 8.38985 24752 ft 418 kts 194°
2026-05-04 09:46 48.86974 8.37999 25067 ft 420 kts 194°
2026-05-04 09:46 48.84121 8.37011 25407 ft 422 kts 194°
2026-05-04 09:47 48.81255 8.36021 25736 ft 423 kts 194°
2026-05-04 09:47 48.78374 8.35026 26066 ft 425 kts 194°
2026-05-04 09:49 48.58071 8.27608 28147 ft 435 kts 194°
2026-05-04 09:49 48.55125 8.26534 28462 ft 435 kts 194°
2026-05-04 09:49 48.52183 8.25467 28876 ft 434 kts 194°
2026-05-04 09:51 48.34705 8.19113 31007 ft 427 kts 195°
2026-05-04 09:51 48.31824 8.18065 31350 ft 426 kts 195°
2026-05-04 09:51 48.28943 8.17020 31686 ft 425 kts 196°
2026-05-04 09:51 48.26078 8.15969 32016 ft 423 kts 198°
2026-05-04 09:52 48.23321 8.14485 32347 ft 419 kts 207°
2026-05-04 09:52 48.20713 8.12558 32684 ft 417 kts 208°
2026-05-04 09:52 48.18114 8.10621 33045 ft 416 kts 208°
2026-05-04 09:52 48.15531 8.08705 33420 ft 414 kts 208°
2026-05-04 09:53 48.12956 8.06805 33784 ft 412 kts 208°
2026-05-04 09:53 48.10391 8.04916 34109 ft 410 kts 208°
2026-05-04 09:53 48.07840 8.03037 34395 ft 409 kts 208°
2026-05-04 09:53 48.05281 8.01153 34630 ft 409 kts 208°
2026-05-04 09:54 48.02732 7.99276 34848 ft 409 kts 208°
2026-05-04 09:54 48.00211 7.97423 35065 ft 409 kts 208°
2026-05-04 09:54 47.97654 7.95551 35280 ft 409 kts 208°
2026-05-04 09:54 47.95094 7.93679 35486 ft 409 kts 208°
2026-05-04 09:55 47.92538 7.91809 35703 ft 410 kts 208°
2026-05-04 09:55 47.89980 7.89937 35895 ft 410 kts 208°
2026-05-04 09:55 47.87417 7.88063 36099 ft 410 kts 208°
2026-05-04 09:55 47.84855 7.86193 36303 ft 410 kts 208°
2026-05-04 09:56 47.82295 7.84327 36497 ft 410 kts 208°
2026-05-04 09:56 47.79734 7.82459 36673 ft 410 kts 208°
2026-05-04 09:56 47.77167 7.80590 36857 ft 411 kts 208°
2026-05-04 09:56 47.74596 7.78721 37001 ft 411 kts 207°
2026-05-04 09:57 47.72026 7.76854 37037 ft 411 kts 207°
2026-05-04 09:57 47.66883 7.73129 37035 ft 411 kts 207°
2026-05-04 09:58 47.61743 7.69409 37031 ft 411 kts 207°
2026-05-04 09:58 47.56603 7.65705 37027 ft 411 kts 207°
2026-05-04 10:00 47.36047 7.50952 37031 ft 411 kts 207°
2026-05-04 10:04 47.04994 7.15849 37022 ft 411 kts 231°
2026-05-04 10:04 47.01410 7.09306 37026 ft 411 kts 231°
2026-05-04 10:05 46.97856 7.02809 37027 ft 411 kts 231°
2026-05-04 10:05 46.94281 6.96296 37031 ft 411 kts 231°
2026-05-04 10:06 46.90368 6.90226 37030 ft 411 kts 218°
2026-05-04 10:06 46.85479 6.85890 37030 ft 412 kts 211°
2026-05-04 10:08 46.68075 6.71443 37033 ft 412 kts 211°
2026-05-04 10:08 46.63089 6.67332 37038 ft 412 kts 211°
2026-05-04 10:09 46.58102 6.63237 37037 ft 412 kts 211°
2026-05-04 10:09 46.53111 6.59143 37041 ft 412 kts 211°
2026-05-04 10:10 46.48125 6.55054 37044 ft 411 kts 211°
2026-05-04 10:10 46.43144 6.50975 37051 ft 411 kts 211°
2026-05-04 10:11 46.38160 6.46897 37065 ft 411 kts 211°
2026-05-04 10:11 46.33170 6.42828 37070 ft 411 kts 211°
2026-05-04 10:12 46.28179 6.38765 37080 ft 411 kts 211°
2026-05-04 10:12 46.23196 6.34711 37083 ft 411 kts 211°
2026-05-04 10:13 46.18202 6.30664 37088 ft 411 kts 211°
2026-05-04 10:13 46.13239 6.26661 37086 ft 411 kts 211°
2026-05-04 10:14 46.08245 6.22643 37083 ft 411 kts 211°
2026-05-04 10:16 45.88268 6.06617 37092 ft 411 kts 211°
2026-05-04 10:16 45.82902 6.03792 37087 ft 416 kts 192°
2026-05-04 10:17 45.77174 6.02544 37083 ft 416 kts 192°
2026-05-04 10:19 45.54316 5.97516 37094 ft 415 kts 192°
2026-05-04 10:19 45.48616 5.96274 37089 ft 414 kts 192°
2026-05-04 10:20 45.42964 5.94771 37085 ft 412 kts 196°
2026-05-04 10:20 45.37385 5.92931 37084 ft 411 kts 197°
2026-05-04 10:21 45.31809 5.91099 37069 ft 411 kts 196°
2026-05-04 10:21 45.26259 5.89357 37059 ft 411 kts 196°
2026-05-04 10:22 45.17871 5.86766 37060 ft 411 kts 196°
2026-05-04 10:23 45.12284 5.85035 37060 ft 411 kts 196°
2026-05-04 10:25 44.89934 5.78150 37066 ft 411 kts 196°
2026-05-04 10:25 44.84341 5.76436 37068 ft 411 kts 197°
2026-05-04 10:26 44.78747 5.74727 37080 ft 412 kts 197°
2026-05-04 10:26 44.73147 5.73015 37085 ft 412 kts 197°
2026-05-04 10:27 44.67553 5.71307 37088 ft 412 kts 197°
2026-05-04 10:27 44.61947 5.69598 37091 ft 412 kts 197°
2026-05-04 10:28 44.56341 5.67898 37097 ft 412 kts 197°
2026-05-04 10:28 44.50772 5.66211 37098 ft 412 kts 197°
2026-05-04 10:29 44.45166 5.64506 37103 ft 412 kts 197°
2026-05-04 10:29 44.39561 5.62818 37104 ft 412 kts 197°
2026-05-04 10:30 44.34198 5.60267 37100 ft 406 kts 206°
2026-05-04 10:30 44.28943 5.57378 37095 ft 406 kts 206°
2026-05-04 10:31 44.23690 5.54497 37100 ft 406 kts 206°
2026-05-04 10:32 44.06204 5.44994 37087 ft 404 kts 206°
2026-05-04 10:33 44.00972 5.42151 37083 ft 404 kts 206°
2026-05-04 10:33 43.95741 5.39320 37079 ft 403 kts 206°
2026-05-04 10:34 43.90511 5.36491 37068 ft 403 kts 206°
2026-05-04 10:34 43.85290 5.33663 37060 ft 403 kts 206°
2026-05-04 10:35 43.80071 5.30849 37057 ft 402 kts 206°
2026-05-04 10:35 43.74859 5.28043 37049 ft 402 kts 206°
2026-05-04 10:36 43.69658 5.25244 37046 ft 401 kts 206°
2026-05-04 10:36 43.64485 5.22471 37050 ft 400 kts 206°
2026-05-04 10:37 43.59288 5.19695 37048 ft 400 kts 206°
2026-05-04 10:37 43.54110 5.16929 37049 ft 399 kts 206°
2026-05-04 10:39 43.36364 5.06553 37050 ft 389 kts 218°
2026-05-04 10:40 43.31912 5.02333 37049 ft 389 kts 218°
2026-05-04 10:40 43.27447 4.98143 37047 ft 388 kts 218°
2026-05-04 10:41 43.23020 4.93991 37052 ft 388 kts 218°
2026-05-04 10:41 43.18571 4.89815 37045 ft 387 kts 218°
2026-05-04 10:42 43.14132 4.85655 37038 ft 386 kts 218°
2026-05-04 10:42 43.09704 4.81509 37038 ft 385 kts 218°
2026-05-04 10:43 43.05261 4.77423 37035 ft 386 kts 214°
2026-05-04 10:45 42.86518 4.63217 37028 ft 384 kts 213°
2026-05-04 10:45 42.81837 4.59691 37024 ft 384 kts 213°
2026-05-04 10:46 42.77164 4.56182 37022 ft 383 kts 213°
2026-05-04 10:46 42.72497 4.52676 37019 ft 383 kts 213°
2026-05-04 10:47 42.67835 4.49173 37014 ft 383 kts 213°
2026-05-04 10:47 42.63170 4.45675 37012 ft 383 kts 213°
2026-05-04 10:49 42.44531 4.31761 37012 ft 382 kts 213°
2026-05-04 10:50 42.39883 4.28297 37010 ft 381 kts 213°
2026-05-04 10:52 42.21293 4.14551 37001 ft 381 kts 213°
2026-05-04 10:52 42.16638 4.11124 37001 ft 381 kts 213°
2026-05-04 10:54 41.98023 3.97490 37002 ft 380 kts 213°
2026-05-04 10:56 41.80069 3.90524 37008 ft 393 kts 197°
2026-05-04 10:56 41.77335 3.89893 37011 ft 393 kts 197°
2026-05-04 10:57 41.71986 3.88660 36996 ft 393 kts 197°
2026-05-04 10:57 41.66602 3.87419 37011 ft 393 kts 197°
2026-05-04 10:58 41.61221 3.86180 36999 ft 392 kts 197°
2026-05-04 10:58 41.55829 3.84939 36608 ft 393 kts 197°
2026-05-04 10:58 41.53145 3.84322 36194 ft 392 kts 197°
2026-05-04 10:59 41.50446 3.83701 35782 ft 393 kts 196°
2026-05-04 10:59 41.47749 3.83082 35374 ft 393 kts 196°
2026-05-04 10:59 41.45047 3.82460 34985 ft 394 kts 196°
2026-05-04 10:59 41.42344 3.81839 34590 ft 395 kts 196°
2026-05-04 11:00 41.39627 3.81217 34202 ft 396 kts 195°
2026-05-04 11:01 41.20321 3.76819 31292 ft 411 kts 195°
2026-05-04 11:02 41.17487 3.76177 30896 ft 414 kts 194°
2026-05-04 11:02 41.14690 3.75331 30503 ft 412 kts 202°
2026-05-04 11:05 40.76910 3.55984 24751 ft 410 kts 203°
2026-05-04 11:06 40.74257 3.54629 24377 ft 408 kts 203°
2026-05-04 11:06 40.71647 3.53294 24014 ft 407 kts 203°
2026-05-04 11:06 40.69005 3.51944 23649 ft 406 kts 203°
2026-05-04 11:06 40.66371 3.50602 23231 ft 405 kts 203°
2026-05-04 11:08 40.48259 3.41403 20338 ft 392 kts 202°
2026-05-04 11:10 40.30877 3.31997 17607 ft 380 kts 204°
2026-05-04 11:12 40.14192 3.22774 14790 ft 364 kts 203°
2026-05-04 11:12 40.11863 3.21495 14407 ft 362 kts 203°
2026-05-04 11:12 40.09571 3.20240 14032 ft 361 kts 203°
2026-05-04 11:12 40.07266 3.18975 13635 ft 357 kts 203°
2026-05-04 11:13 40.04994 3.17728 13224 ft 352 kts 203°
2026-05-04 11:13 40.02755 3.16502 12804 ft 346 kts 203°
2026-05-04 11:13 40.00549 3.15292 12399 ft 341 kts 203°
2026-05-04 11:13 39.98375 3.14102 11993 ft 336 kts 203°
2026-05-04 11:14 39.96234 3.12932 11592 ft 331 kts 203°
2026-05-04 11:14 39.94120 3.11776 11198 ft 327 kts 202°
2026-05-04 11:14 39.92037 3.10638 10799 ft 321 kts 202°
2026-05-04 11:16 39.82030 3.05178 8190 ft 259 kts 203°
2026-05-04 11:16 39.80359 3.04265 7732 ft 261 kts 204°
2026-05-04 11:16 39.78681 3.03349 7298 ft 262 kts 204°
2026-05-04 11:17 39.77016 3.02440 6872 ft 263 kts 204°
2026-05-04 11:17 39.75326 3.01516 6437 ft 264 kts 205°
2026-05-04 11:19 39.63921 2.93993 3296 ft 267 kts 238°
2026-05-04 11:19 39.62968 2.91963 2824 ft 257 kts 238°
2026-05-04 11:19 39.62069 2.90031 2457 ft 243 kts 238°
2026-05-04 11:19 39.61217 2.88213 2149 ft 226 kts 238°
2026-05-04 11:20 39.60439 2.86559 1856 ft 203 kts 238°
2026-05-04 11:20 39.59744 2.85084 1632 ft 179 kts 238°
2026-05-04 11:20 39.59124 2.83771 1386 ft 166 kts 238°
2026-05-04 11:20 39.58532 2.82520 1172 ft 160 kts 238°
2026-05-04 11:22 39.54797 2.74589 37 ft 87 kts 238°
2026-05-04 11:22 39.54627 2.74228 37 ft 54 kts 239°
2026-05-04 11:23 39.54557 2.73968 38 ft 20 kts 262°
2026-05-04 11:23 39.54551 2.73789 38 ft 19 kts 275°
2026-05-04 11:24 39.54876 2.74086 38 ft 11 kts 328°
2026-05-04 11:25 39.54939 2.74036 38 ft 10 kts 324°
2026-05-04 11:25 39.54933 2.73960 36 ft 11 kts 270°
2026-05-04 11:25 39.55000 2.73881 38 ft 14 kts 329°
2026-05-04 11:26 39.55031 2.73792 38 ft 6 kts 240°
2026-05-04 11:27 39.55003 2.73728 38 ft 0 kts 239°